Regional Weather Roundup
Issued by NWS

Home | Current Version | Previous Version | Graphics & Text | Print | Product List | Glossary On
Versions: 1 2 3 4 5 6 7 8 9 10 11 12 13 14 15 16 17 18 19 20 21 22 23 24 25 26 27 28 29 30 31 32 33 34 35 36 37 38 39 40 41 42 43 44 45 46 47 48 49 50
000
ASUS45 KBOI 252210
RWRID
WEATHER ROUNDUP FOR IDAHO
NATIONAL WEATHER SERVICE BOISE ID
300 PM MST TUE NOV 25 2014

NOTE: "FAIR" INDICATES FEW OR NO CLOUDS BELOW 12000 FEET
WITH NO SIGNIFICANT WEATHER AND/OR OBSTRUCTIONS TO VISIBILITY

IDZ012-014-252300-
SOUTHWEST IDAHO


CITY           SKY/WX    TMP DP  RH WIND       PRES   REMARKS
BOISE          CLOUDY    53  43  68 N7        30.24S
CALDWELL       NOT AVBL
MOUNTAIN HOME  CLOUDY    58  44  60 W17       30.23R
$$

IDZ016-017-252300-
SOUTHCENTRAL IDAHO


CITY           SKY/WX    TMP DP  RH WIND       PRES   REMARKS
BURLEY         CLOUDY    52  37  56 W20G30    30.18S
JEROME         CLOUDY    51  39  63 W23G33    30.21R
TWIN FALLS     CLOUDY    55  37  50 W25G37    30.21R
$$

IDZ019>023-252300-
SOUTHEAST IDAHO


CITY           SKY/WX    TMP DP  RH WIND       PRES   REMARKS
IDAHO FALLS    PTSUNNY   44  37  76 SW20      30.07F
POCATELLO      PTSUNNY   48  39  71 SW31G45   30.14F
REXBURG        CLOUDY    40  34  79 SW13      30.07R WCI  32
$$

IDZ006-010-011-018-031-032-252300-
CENTRAL IDAHO MOUNTAINS


CITY           SKY/WX    TMP DP  RH WIND       PRES   REMARKS
MCCALL         LGT RAIN  34  33  96 NE3       30.17S
HAILEY         PTSUNNY   48  36  61 S13G22    30.10F
STANLEY          N/A     39  33  79 E10       30.17S WCI  32
SALMON         CLOUDY    36  34  93 CALM      30.10R
CHALLIS        CLOUDY    39  34  82 NW3       30.07S
$$

IDZ002-004-006-007-026-252300-
NORTHERN IDAHO


CITY           SKY/WX    TMP DP  RH WIND       PRES   REMARKS
LEWISTON       LGT RAIN  47  45  93 W7        30.16F
LOWELL           N/A     36  34  92 N3        30.20R
COEUR D`ALENE  CLOUDY    39  30  70 CALM      30.17R
MULLAN PASS    SNOW      29  25  85 NW3       30.08R VSB 1/4
$$



USA.gov is the U.S. government's official web portal to all federal, state and local government web resources and services.